| time (UTC) | temp F | wind direction | speed knots | gust knots | rain 1hr in | rain 24hr in | rain mn in | humidity % | barometer mb |
| 20260903145632 | 146 | 185 | 4.3 | 10.4 | 0.00 | 0.00 | 0.00 | 100 | 1013.6 |
| 20260903145132 | 145 | 191 | 6.1 | 13.0 | 0.00 | 0.00 | 0.00 | 100 | 1013.8 |
| 20260903144631 | 145 | 170 | 7.0 | 13.0 | 0.00 | 0.00 | 0.00 | 100 | 1013.8 |
| 20260903144402 | 145 | 226 | 7.8 | 12.2 | 0.00 | 0.00 | 0.00 | 100 | 1013.8 |
| 20260903143632 | 145 | 164 | 3.5 | 11.3 | 0.00 | 0.00 | 0.00 | 100 | 1013.8 |
| 20260903143131 | 145 | 191 | 7.0 | 11.3 | 0.00 | 0.00 | 0.00 | 100 | 1013.9 |
| 20260903142630 | 145 | 195 | 6.1 | 12.2 | 0.00 | 0.00 | 0.00 | 100 | 1013.8 |
| 20260903142130 | 145 | 167 | 5.2 | 12.2 | 0.00 | 0.00 | 0.00 | 100 | 1013.8 |
| 20260903141901 | 145 | 180 | 5.2 | 9.6 | 0.00 | 0.00 | 0.00 | 100 | 1013.6 |
| 20260903141131 | 145 | 208 | 4.3 | 7.8 | 0.00 | 0.00 | 0.00 | 100 | 1013.6 |
| 20260903140630 | 145 | 222 | 2.6 | 9.6 | 0.00 | 0.00 | 0.00 | 100 | 1013.6 |
| 20260903140131 | 145 | 223 | 4.3 | 9.6 | 0.00 | 0.00 | 0.00 | 100 | 1013.6 |
| 20260903135631 | 145 | 205 | 3.5 | 12.2 | 0.00 | 0.00 | 0.00 | 100 | 1013.6 |
| 20260903135402 | 145 | 170 | 4.3 | 12.2 | 0.00 | 0.00 | 0.00 | 100 | 1013.6 |
| 20260903134629 | 145 | 203 | 4.3 | 10.4 | 0.00 | 0.00 | 0.00 | 100 | 1013.6 |
| 20260903134130 | 144 | 153 | 4.3 | 7.8 | 0.00 | 0.00 | 0.00 | 100 | 1013.8 |
| 20260903133859 | 144 | 146 | 3.5 | 8.7 | 0.00 | 0.00 | 0.00 | 100 | 1013.8 |
| 20260903133127 | 144 | 120 | 1.7 | 10.4 | 0.00 | 0.00 | 0.00 | 100 | 1013.8 |
| 20260903132856 | 144 | 180 | 5.2 | 10.4 | 0.00 | 0.00 | 0.00 | 100 | 1013.8 |
| 20260903132131 | 144 | 133 | 2.6 | 8.7 | 0.00 | 0.00 | 0.00 | 100 | 1013.9 |
| 20260903132125 | 144 | 180 | 5.2 | 9.6 | 0.00 | 0.00 | 0.00 | 100 | 1013.8 |
| 20260903131126 | 144 | 136 | 3.5 | 8.7 | 0.00 | 0.00 | 0.00 | 100 | 1013.9 |
| 20260903130626 | 144 | 143 | 0.0 | 7.0 | 0.00 | 0.00 | 0.00 | 100 | 1013.8 |
| 20260903130118 | 144 | 118 | 4.3 | 7.0 | 0.00 | 0.00 | 0.00 | 100 | 1013.8 |
| 20260903130114 | 144 | 157 | 1.7 | 7.8 | 0.00 | 0.00 | 0.00 | 100 | 1013.8 |
| 20260903125110 | 144 | 229 | 3.5 | 9.6 | 0.00 | 0.00 | 0.00 | 100 | 1013.6 |
| 20260903124610 | 144 | 184 | 2.6 | 9.6 | 0.00 | 0.00 | 0.00 | 100 | 1013.6 |
| 20260903124110 | 144 | 154 | 4.3 | 8.7 | 0.00 | 0.00 | 0.00 | 100 | 1013.6 |
| 20260903123609 | 144 | 129 | 0.9 | 5.2 | 0.00 | 0.00 | 0.00 | 100 | 1013.6 |
| 20260903123108 | 144 | 150 | 0.0 | 5.2 | 0.00 | 0.00 | 0.00 | 100 | 1013.6 |
| 20260903122607 | 144 | 206 | 0.0 | 7.0 | 0.00 | 0.00 | 0.00 | 100 | 1013.5 |
| 20260903122056 | 144 | 192 | 2.6 | 7.0 | 0.00 | 0.00 | 0.00 | 100 | 1013.5 |
| 20260903121556 | 144 | 136 | 0.0 | 7.0 | 0.00 | 0.00 | 0.00 | 100 | 1013.4 |
| 20260903121057 | 144 | 192 | 0.9 | 7.0 | 0.00 | 0.00 | 0.00 | 100 | 1013.4 |
| 20260903120557 | 144 | 123 | 2.6 | 5.2 | 0.00 | 0.00 | 0.00 | 100 | 1013.4 |
| 20260903120057 | 144 | 163 | 0.0 | 7.8 | 0.00 | 0.00 | 0.00 | 100 | 1013.4 |
| 20260903115536 | 144 | 153 | 3.5 | 7.8 | 0.00 | 0.00 | 0.00 | 100 | 1013.3 |
| 20260903115531 | 144 | 126 | 1.7 | 7.0 | 0.00 | 0.00 | 0.00 | 100 | 1013.3 |
| 20260903114756 | 144 | 143 | 0.0 | 0.0 | 0.00 | 0.00 | 0.00 | 100 | 1013.3 |
| 20260903114011 | 144 | 143 | 0.0 | 0.0 | 0.00 | 0.00 | 0.00 | 100 | 1013.2 |
| 20260903113510 | 144 | 143 | 0.0 | 0.0 | 0.00 | 0.00 | 0.00 | 100 | 1013.3 |
| 20260903113005 | 144 | 143 | 0.0 | 4.3 | 0.00 | 0.00 | 0.00 | 100 | 1013.2 |
| 20260903112456 | 144 | 143 | 0.0 | 4.3 | 0.00 | 0.00 | 0.00 | 100 | 1013.2 |
| 20260903111956 | 144 | 136 | 1.7 | 7.8 | 0.00 | 0.00 | 0.00 | 100 | 1013.1 |
| 20260903111457 | 144 | 136 | 0.9 | 7.8 | 0.00 | 0.00 | 0.00 | 100 | 1013.1 |
| 20260903111224 | 144 | 153 | 0.9 | 7.0 | 0.00 | 0.00 | 0.00 | 100 | 1013.1 |
| 20260903110442 | 144 | 222 | 2.6 | 7.0 | 0.00 | 0.00 | 0.00 | 100 | 1013.0 |
| 20260903105937 | 144 | 154 | 0.9 | 7.8 | 0.00 | 0.00 | 0.00 | 100 | 1013.0 |
| 20260903105427 | 144 | 151 | 2.6 | 7.8 | 0.00 | 0.00 | 0.00 | 100 | 1013.0 |
| 20260903104927 | 144 | 201 | 0.0 | 5.2 | 0.00 | 0.00 | 0.00 | 100 | 1013.0 |
| 20260903104416 | 144 | 158 | 0.9 | 5.2 | 0.00 | 0.00 | 0.00 | 100 | 1012.9 |
| 20260903103913 | 144 | 154 | 1.7 | 7.0 | 0.00 | 0.00 | 0.00 | 100 | 1012.9 |
| 20260903103412 | 144 | 187 | 0.9 | 8.7 | 0.00 | 0.00 | 0.00 | 100 | 1012.9 |
| 20260903102910 | 144 | 177 | 0.0 | 8.7 | 0.00 | 0.00 | 0.00 | 100 | 1012.8 |
| 20260903102629 | 144 | 180 | 2.6 | 8.7 | 0.00 | 0.00 | 0.00 | 100 | 1012.8 |
| 20260903101857 | 144 | 170 | 0.0 | 9.6 | 0.00 | 0.00 | 0.00 | 100 | 1012.6 |
| 20260903101615 | 144 | 165 | 2.6 | 9.6 | 0.00 | 0.00 | 0.00 | 100 | 1012.6 |
| 20260903100843 | 144 | 167 | 1.7 | 6.1 | 0.00 | 0.00 | 0.00 | 100 | 1012.6 |
| 20260903100337 | 144 | 178 | 3.5 | 6.1 | 0.00 | 0.00 | 0.00 | 100 | 1012.6 |
| 20260903095838 | 144 | 180 | 0.9 | 6.1 | 0.00 | 0.00 | 0.00 | 100 | 1012.6 |
| 20260903095338 | 144 | 157 | 1.7 | 5.2 | 0.00 | 0.00 | 0.00 | 100 | 1012.6 |
| 20260903094836 | 144 | 123 | 0.9 | 6.1 | 0.00 | 0.00 | 0.00 | 100 | 1012.8 |
| 20260903094323 | 144 | 144 | 0.9 | 7.0 | 0.00 | 0.00 | 0.00 | 100 | 1012.9 |
| 20260903093820 | 144 | 146 | 0.9 | 7.0 | 0.00 | 0.00 | 0.00 | 100 | 1012.9 |
| 20260903093542 | 144 | 158 | 1.7 | 7.8 | 0.00 | 0.00 | 0.00 | 100 | 1013.0 |
| 20260903092804 | 144 | 184 | 3.5 | 7.8 | 0.00 | 0.00 | 0.00 | 100 | 1013.0 |
| 20260903092800 | 144 | 208 | 3.5 | 7.8 | 0.00 | 0.00 | 0.00 | 100 | 1013.0 |
| 20260903091800 | 144 | 153 | 4.3 | 7.0 | 0.00 | 0.00 | 0.00 | 100 | 1013.1 |
| 20260903091300 | 144 | 157 | 0.9 | 7.0 | 0.00 | 0.00 | 0.00 | 100 | 1013.2 |
| 20260903091027 | 144 | 139 | 2.6 | 8.7 | 0.00 | 0.00 | 0.00 | 100 | 1013.2 |
| 20260903090257 | 144 | 160 | 2.6 | 8.7 | 0.00 | 0.00 | 0.00 | 100 | 1013.2 |
| 20260903085758 | 144 | 135 | 0.9 | 8.7 | 0.00 | 0.00 | 0.00 | 100 | 1013.2 |
| 20260903085258 | 144 | 198 | 3.5 | 8.7 | 0.00 | 0.00 | 0.00 | 100 | 1013.2 |
| 20260903084757 | 144 | 178 | 5.2 | 9.6 | 0.00 | 0.00 | 0.00 | 100 | 1013.3 |
| 20260903084256 | 144 | 157 | 5.2 | 9.6 | 0.00 | 0.00 | 0.00 | 100 | 1013.2 |
| 20260903083757 | 144 | 126 | 2.6 | 7.8 | 0.00 | 0.00 | 0.00 | 100 | 1013.2 |
| 20260903083524 | 144 | 184 | 2.6 | 7.8 | 0.00 | 0.00 | 0.00 | 100 | 1013.2 |
| 20260903083015 | 144 | 146 | 3.5 | 7.8 | 0.00 | 0.00 | 0.00 | 100 | 1013.2 |
| 20260903082238 | 144 | 189 | 0.0 | 7.8 | 0.00 | 0.00 | 0.00 | 100 | 1013.2 |
| 20260903081735 | 144 | 192 | 0.0 | 7.0 | 0.00 | 0.00 | 0.00 | 100 | 1013.2 |
| 20260903081235 | 144 | 154 | 4.3 | 7.0 | 0.00 | 0.00 | 0.00 | 100 | 1013.1 |
| 20260903081007 | 144 | 168 | 0.0 | 7.8 | 0.00 | 0.00 | 0.00 | 100 | 1013.1 |
| 20260903080229 | 144 | 168 | 5.2 | 7.8 | 0.00 | 0.00 | 0.00 | 100 | 1013.1 |
| 20260903075729 | 144 | 151 | 4.3 | 7.8 | 0.00 | 0.00 | 0.00 | 100 | 1013.2 |
| 20260903075230 | 144 | 188 | 1.7 | 5.2 | 0.00 | 0.00 | 0.00 | 100 | 1013.2 |
| 20260903074710 | 144 | 151 | 0.0 | 6.1 | 0.00 | 0.00 | 0.00 | 100 | 1013.2 |
| 20260903074156 | 144 | 168 | 4.3 | 6.1 | 0.00 | 0.00 | 0.00 | 100 | 1013.3 |
| 20260903073656 | 144 | 154 | 1.7 | 8.7 | 0.00 | 0.00 | 0.00 | 100 | 1013.3 |
| 20260903073150 | 144 | 210 | 3.5 | 8.7 | 0.00 | 0.00 | 0.00 | 100 | 1013.4 |
| 20260903072629 | 144 | 161 | 4.3 | 7.0 | 0.00 | 0.00 | 0.00 | 100 | 1013.3 |
| 20260903072128 | 144 | 150 | 3.5 | 6.1 | 0.00 | 0.00 | 0.00 | 100 | 1013.4 |
| 20260903071630 | 144 | 113 | 2.6 | 7.8 | 0.00 | 0.00 | 0.00 | 100 | 1013.4 |
| 20260903071109 | 144 | 101 | 0.0 | 7.8 | 0.00 | 0.00 | 0.00 | 100 | 1013.5 |
| 20260903070834 | 144 | 170 | 4.3 | 7.0 | 0.00 | 0.00 | 0.00 | 100 | 1013.4 |
| 20260903065601 | 144 | 158 | 3.5 | 8.7 | 0.00 | 0.00 | 0.00 | 100 | 1013.4 |
| 20260903065331 | 144 | 163 | 4.3 | 7.8 | 0.00 | 0.00 | 0.00 | 100 | 1013.4 |
| 20260903064600 | 144 | 151 | 3.5 | 7.8 | 0.00 | 0.00 | 0.00 | 100 | 1013.4 |
| 20260903064100 | 144 | 135 | 0.0 | 5.2 | 0.00 | 0.00 | 0.00 | 100 | 1013.5 |
| 20260903063553 | 144 | 189 | 0.0 | 7.0 | 0.00 | 0.00 | 0.00 | 100 | 1013.5 |
| 20260903063041 | 144 | 195 | 1.7 | 10.4 | 0.00 | 0.00 | 0.00 | 100 | 1013.5 |
| 20260903062541 | 144 | 198 | 0.0 | 10.4 | 0.00 | 0.00 | 0.00 | 100 | 1013.5 |
| 20260903062036 | 144 | 195 | 3.5 | 8.7 | 0.00 | 0.00 | 0.00 | 100 | 1013.5 |
| 20260903061535 | 145 | 163 | 2.6 | 7.8 | 0.00 | 0.00 | 0.00 | 100 | 1013.5 |
| 20260903061035 | 145 | 135 | 5.2 | 8.7 | 0.00 | 0.00 | 0.00 | 100 | 1013.5 |
| 20260903060539 | 145 | 151 | 5.2 | 7.8 | 0.00 | 0.00 | 0.00 | 100 | 1013.5 |
| 20260903060535 | 145 | 181 | 3.5 | 8.7 | 0.00 | 0.00 | 0.00 | 100 | 1013.6 |
| 20260903055534 | 145 | 142 | 4.3 | 8.7 | 0.00 | 0.00 | 0.00 | 100 | 1013.4 |
| 20260903055033 | 145 | 158 | 3.5 | 8.7 | 0.00 | 0.00 | 0.00 | 100 | 1013.4 |
| 20260903054530 | 145 | 133 | 5.2 | 8.7 | 0.00 | 0.00 | 0.00 | 100 | 1013.3 |
| 20260903054025 | 145 | 199 | 6.1 | 10.4 | 0.00 | 0.00 | 0.00 | 100 | 1013.3 |
| 20260903053525 | 145 | 150 | 5.2 | 10.4 | 0.00 | 0.00 | 0.00 | 100 | 1013.3 |
| 20260903053023 | 145 | 125 | 4.3 | 7.8 | 0.00 | 0.00 | 0.00 | 100 | 1013.3 |
| 20260903052519 | 145 | 167 | 1.7 | 12.2 | 0.00 | 0.00 | 0.00 | 100 | 1013.2 |
| 20260903052017 | 145 | 163 | 6.1 | 12.2 | 0.00 | 0.00 | 0.00 | 100 | 1013.3 |
| 20260903051746 | 145 | 151 | 5.2 | 8.7 | 0.00 | 0.00 | 0.00 | 100 | 1013.2 |
| 20260903051016 | 145 | 151 | 0.0 | 9.6 | 0.00 | 0.00 | 0.00 | 100 | 1013.2 |
| 20260903050747 | 145 | 170 | 4.3 | 9.6 | 0.00 | 0.00 | 0.00 | 100 | 1013.2 |
| 20260903050232 | 145 | 142 | 3.5 | 9.6 | 0.00 | 0.00 | 0.00 | 100 | 1013.1 |
| 20260903045501 | 145 | 178 | 4.3 | 9.6 | 0.00 | 0.00 | 0.00 | 100 | 1013.2 |
| 20260903045000 | 145 | 150 | 0.9 | 8.7 | 0.00 | 0.00 | 0.00 | 100 | 1013.1 |
| 20260903044501 | 145 | 139 | 2.6 | 8.7 | 0.00 | 0.00 | 0.00 | 100 | 1013.2 |
| 20260903043958 | 145 | 130 | 2.6 | 6.1 | 0.00 | 0.00 | 0.00 | 100 | 1013.1 |
| 20260903043456 | 145 | 150 | 3.5 | 6.1 | 0.00 | 0.00 | 0.00 | 100 | 1013.1 |
| 20260903043227 | 145 | 126 | 0.9 | 7.0 | 0.00 | 0.00 | 0.00 | 100 | 1013.1 |
| 20260903042456 | 145 | 154 | 1.7 | 7.0 | 0.00 | 0.00 | 0.00 | 100 | 1013.1 |
| 20260903041956 | 145 | 154 | 1.7 | 7.0 | 0.00 | 0.00 | 0.00 | 100 | 1013.1 |
| 20260903041443 | 145 | 160 | 0.0 | 7.0 | 0.00 | 0.00 | 0.00 | 100 | 1013.1 |
| 20260903040925 | 145 | 88 | 2.6 | 5.2 | 0.00 | 0.00 | 0.00 | 100 | 1013.1 |
| 20260903040404 | 145 | 158 | 0.0 | 4.3 | 0.00 | 0.00 | 0.00 | 100 | 1013.1 |
| 20260903035856 | 145 | 97 | 0.0 | 4.3 | 0.00 | 0.00 | 0.00 | 100 | 1013.0 |
| 20260903035350 | 145 | 151 | 0.9 | 4.3 | 0.00 | 0.00 | 0.00 | 100 | 1013.1 |
| 20260903034847 | 145 | 129 | 1.7 | 6.1 | 0.00 | 0.00 | 0.00 | 100 | 1013.0 |
| 20260903034342 | 145 | 39 | 1.7 | 7.0 | 0.00 | 0.00 | 0.00 | 100 | 1013.0 |
| 20260903034058 | 145 | 74 | 1.7 | 9.6 | 0.00 | 0.00 | 0.00 | 100 | 1013.1 |
| 20260903033328 | 145 | 97 | 5.2 | 9.6 | 0.00 | 0.00 | 0.00 | 100 | 1013.2 |
| 20260903032829 | 145 | 106 | 4.3 | 9.6 | 0.00 | 0.00 | 0.00 | 100 | 1013.0 |
| 20260903032325 | 146 | 139 | 2.6 | 9.6 | 0.00 | 0.00 | 0.00 | 100 | 1012.9 |
| 20260903031825 | 146 | 135 | 0.0 | 3.5 | 0.00 | 0.00 | 0.00 | 100 | 1012.5 |
| 20260903031326 | 146 | 111 | 0.0 | 3.5 | 0.00 | 0.00 | 0.00 | 100 | 1012.5 |
| 20260903030804 | 146 | 28 | 0.0 | 9.6 | 0.00 | 0.00 | 0.00 | 100 | 1012.3 |
| 20260903030256 | 146 | 28 | 0.0 | 9.6 | 0.00 | 0.00 | 0.00 | 100 | 1012.3 |
| 20260903025756 | 146 | 122 | 0.0 | 0.0 | 0.00 | 0.00 | 0.00 | 100 | 1012.4 |
| 20260903025518 | 146 | 122 | 0.0 | 0.0 | 0.00 | 0.00 | 0.00 | 100 | 1012.1 |
| 20260903024743 | 146 | 122 | 0.0 | 0.0 | 0.00 | 0.00 | 0.00 | 100 | 1012.2 |
| 20260903024232 | 146 | 122 | 0.0 | 0.0 | 0.00 | 0.00 | 0.00 | 100 | 1011.9 |
| 20260903023711 | 146 | 122 | 0.0 | 0.0 | 0.00 | 0.00 | 0.00 | 100 | 1011.8 |
| 20260903023147 | 146 | 122 | 0.0 | 0.0 | 0.00 | 0.00 | 0.00 | 100 | 1011.8 |
| 20260903022644 | 146 | 122 | 0.0 | 0.0 | 0.00 | 0.00 | 0.00 | 100 | 1011.7 |
| 20260903022143 | 146 | 122 | 0.0 | 0.0 | 0.00 | 0.00 | 0.00 | 100 | 1011.6 |
| 20260903021626 | 146 | 122 | 0.0 | 0.0 | 0.00 | 0.00 | 0.00 | 100 | 1011.5 |
| 20260903021124 | 146 | 122 | 0.0 | 0.0 | 0.00 | 0.00 | 0.00 | 100 | 1011.4 |
| 20260903020612 | 146 | 122 | 0.0 | 0.0 | 0.00 | 0.00 | 0.00 | 100 | 1011.4 |
| 20260903020337 | 146 | 122 | 0.0 | 0.0 | 0.00 | 0.00 | 0.00 | 100 | 1011.2 |
| 20260903015546 | 146 | 122 | 0.0 | 0.0 | 0.00 | 0.00 | 0.00 | 100 | 1011.2 |
| 20260903015037 | 146 | 122 | 0.0 | 0.0 | 0.00 | 0.00 | 0.00 | 100 | 1011.1 |
| 20260903014535 | 146 | 122 | 0.0 | 0.0 | 0.00 | 0.00 | 0.00 | 100 | 1011.1 |
| 20260903014025 | 146 | 122 | 0.0 | 0.0 | 0.00 | 0.00 | 0.00 | 100 | 1011.0 |
| 20260903013521 | 146 | 122 | 0.0 | 0.0 | 0.00 | 0.00 | 0.00 | 100 | 1010.9 |
| 20260903012958 | 146 | 122 | 0.0 | 0.0 | 0.00 | 0.00 | 0.00 | 100 | 1010.9 |
| 20260903012726 | 146 | 122 | 0.0 | 0.0 | 0.00 | 0.00 | 0.00 | 100 | 1011.0 |
| 20260903012222 | 146 | 122 | 0.0 | 4.3 | 0.00 | 0.00 | 0.00 | 100 | 1011.0 |
| 20260903011710 | 146 | 122 | 0.0 | 4.3 | 0.00 | 0.00 | 0.00 | 100 | 1011.0 |
| 20260903011210 | 146 | 16 | 0.0 | 0.0 | 0.00 | 0.00 | 0.00 | 100 | 1010.9 |
| 20260903010438 | 146 | 16 | 0.0 | 0.0 | 0.00 | 0.00 | 0.00 | 100 | 1010.9 |
| 20260903005915 | 146 | 16 | 0.0 | 0.0 | 0.00 | 0.00 | 0.00 | 100 | 1010.9 |
| 20260903005414 | 147 | 16 | 0.0 | 0.0 | 0.00 | 0.00 | 0.00 | 100 | 1011.0 |
| 20260903004859 | 147 | 16 | 0.0 | 0.0 | 0.00 | 0.00 | 0.00 | 100 | 1011.0 |
| 20260903004341 | 147 | 16 | 0.0 | 0.0 | 0.00 | 0.00 | 0.00 | 100 | 1011.0 |
| 20260903003838 | 147 | 16 | 0.0 | 0.0 | 0.00 | 0.00 | 0.00 | 100 | 1010.9 |
| 20260903003325 | 147 | 16 | 0.0 | 0.0 | 0.00 | 0.00 | 0.00 | 100 | 1010.9 |
| 20260903002817 | 147 | 16 | 0.0 | 0.0 | 0.00 | 0.00 | 0.00 | 100 | 1010.8 |
| 20260903002306 | 147 | 16 | 0.0 | 0.9 | 0.00 | 0.00 | 0.00 | 100 | 1010.9 |
| 20260903002028 | 147 | 16 | 0.0 | 4.3 | 0.00 | 0.00 | 0.00 | 100 | 1010.9 |
| 20260903001246 | 147 | 16 | 0.9 | 4.3 | 0.00 | 0.00 | 0.00 | 100 | 1010.8 |
| 20260903000741 | 147 | 47 | 0.0 | 6.1 | 0.00 | 0.00 | 0.00 | 100 | 1010.8 |
| 20260903000229 | 147 | 54 | 1.7 | 7.8 | 0.00 | 0.00 | 0.00 | 100 | 1010.8 |
| 20260902235727 | 148 | 33 | 3.5 | 7.8 | 0.00 | 0.00 | 0.00 | 100 | 1010.9 |
| 20260902235227 | 148 | 0 | 3.5 | 9.6 | 0.00 | 0.00 | 0.00 | 100 | 1010.8 |
| 20260902234728 | 149 | 81 | 1.7 | 9.6 | 0.00 | 0.00 | 0.00 | 100 | 1010.8 |
| 20260902234230 | 149 | 125 | 0.0 | 2.6 | 0.00 | 0.00 | 0.00 | 100 | 1010.7 |
| 20260902233711 | 149 | 230 | 0.0 | 0.0 | 0.00 | 0.00 | 0.00 | 100 | 1010.7 |
| 20260902233210 | 149 | 230 | 0.0 | 0.0 | 0.00 | 0.00 | 0.00 | 100 | 1010.6 |
| 20260902232658 | 149 | 230 | 0.0 | 3.5 | 0.00 | 0.00 | 0.00 | 100 | 1010.7 |
| 20260902232157 | 150 | 230 | 0.0 | 4.3 | 0.00 | 0.00 | 0.00 | 100 | 1010.6 |
| 20260902231657 | 150 | 170 | 0.0 | 4.3 | 0.00 | 0.00 | 0.00 | 100 | 1010.6 |
| 20260902231427 | 150 | 299 | 0.0 | 3.5 | 0.00 | 0.00 | 0.00 | 100 | 1010.6 |
| 20260902230654 | 150 | 299 | 0.0 | 3.5 | 0.00 | 0.00 | 0.00 | 100 | 1010.6 |
| 20260902230154 | 150 | 164 | 0.0 | 5.2 | 0.00 | 0.00 | 0.00 | 100 | 1010.6 |
| 20260902225621 | 149 | 293 | 0.9 | 5.2 | 0.00 | 0.00 | 0.00 | 100 | 1010.6 |
| 20260902225113 | 150 | 285 | 0.0 | 3.5 | 0.00 | 0.00 | 0.00 | 100 | 1010.6 |
| 20260902224547 | 150 | 153 | 0.0 | 3.5 | 0.00 | 0.00 | 0.00 | 100 | 1010.6 |
| 20260902224316 | 150 | 326 | 0.9 | 3.5 | 0.00 | 0.00 | 0.00 | 100 | 1010.6 |
| 20260902223537 | 150 | 23 | 0.0 | 5.2 | 0.00 | 0.00 | 0.00 | 100 | 1010.6 |
| 20260902223017 | 150 | 23 | 2.6 | 5.2 | 0.00 | 0.00 | 0.00 | 100 | 1010.6 |
| 20260902222501 | 150 | 226 | 0.0 | 0.0 | 0.00 | 0.00 | 0.00 | 100 | 1010.7 |
| 20260902222222 | 150 | 226 | 0.0 | 0.0 | 0.00 | 0.00 | 0.00 | 100 | 1010.8 |
| 20260902221417 | 150 | 226 | 0.0 | 6.1 | 0.00 | 0.00 | 0.00 | 100 | 1010.7 |
| 20260902220858 | 150 | 226 | 0.0 | 6.1 | 0.00 | 0.00 | 0.00 | 100 | 1010.8 |
| 20260902220342 | 149 | 225 | 0.0 | 6.1 | 0.00 | 0.00 | 0.00 | 100 | 1010.9 |
| 20260902220055 | 149 | 250 | 0.9 | 6.1 | 0.00 | 0.00 | 0.00 | 100 | 1010.9 |
| 20260902215256 | 149 | 147 | 0.0 | 6.1 | 0.00 | 0.00 | 0.00 | 100 | 1010.9 |
| 20260902214744 | 149 | 229 | 2.6 | 6.1 | 0.00 | 0.00 | 0.00 | 100 | 1010.9 |
| 20260902214516 | 150 | 199 | 1.7 | 6.1 | 0.00 | 0.00 | 0.00 | 100 | 1011.0 |
| 20260902213742 | 150 | 255 | 1.7 | 6.1 | 0.00 | 0.00 | 0.00 | 100 | 1011.0 |
| 20260902213244 | 150 | 36 | 0.0 | 0.0 | 0.00 | 0.00 | 0.00 | 100 | 1011.0 |
| 20260902212743 | 149 | 36 | 0.0 | 0.0 | 0.00 | 0.00 | 0.00 | 100 | 1011.0 |
| 20260902212223 | 149 | 36 | 0.0 | 0.0 | 0.00 | 0.00 | 0.00 | 100 | 1011.1 |
| 20260902211659 | 149 | 36 | 0.0 | 0.0 | 0.00 | 0.00 | 0.00 | 100 | 1011.1 |
| 20260902211137 | 149 | 36 | 0.0 | 0.0 | 0.00 | 0.00 | 0.00 | 100 | 1011.1 |
| 20260902210617 | 150 | 36 | 0.0 | 0.0 | 0.00 | 0.00 | 0.00 | 100 | 1011.2 |
| 20260902210111 | 150 | 36 | 0.0 | 0.0 | 0.00 | 0.00 | 0.00 | 100 | 1011.2 |
| 20260902205604 | 149 | 36 | 0.0 | 0.9 | 0.00 | 0.00 | 0.00 | 100 | 1011.4 |
| 20260902205041 | 149 | 36 | 0.0 | 3.5 | 0.00 | 0.00 | 0.00 | 100 | 1011.5 |
| 20260902204534 | 151 | 36 | 0.0 | 6.1 | 0.00 | 0.00 | 0.00 | 100 | 1011.5 |
| 20260902204030 | 151 | 330 | 0.0 | 6.1 | 0.00 | 0.00 | 0.00 | 100 | 1011.6 |
| 20260902203526 | 151 | 2 | 0.9 | 5.2 | 0.00 | 0.00 | 0.00 | 100 | 1011.6 |
| 20260902203026 | 151 | 11 | 0.0 | 6.1 | 0.00 | 0.00 | 0.00 | 100 | 1011.7 |
| 20260902202526 | 150 | 28 | 2.6 | 6.1 | 0.00 | 0.00 | 0.00 | 100 | 1011.8 |
| 20260902202026 | 150 | 12 | 3.5 | 7.0 | 0.00 | 0.00 | 0.00 | 100 | 1011.9 |
| 20260902201526 | 150 | 312 | 3.5 | 7.0 | 0.00 | 0.00 | 0.00 | 100 | 1011.9 |
| 20260902201026 | 150 | 358 | 0.0 | 4.3 | 0.00 | 0.00 | 0.00 | 100 | 1011.9 |
| 20260902200523 | 150 | 358 | 0.0 | 4.3 | 0.00 | 0.00 | 0.00 | 100 | 1012.1 |
| 20260902200250 | 150 | 289 | 0.0 | 4.3 | 0.00 | 0.00 | 0.00 | 100 | 1012.1 |
| 20260902195516 | 151 | 264 | 0.9 | 5.2 | 0.00 | 0.00 | 0.00 | 100 | 1012.2 |
| 20260902195013 | 151 | 358 | 0.0 | 5.2 | 0.00 | 0.00 | 0.00 | 100 | 1012.2 |
| 20260902194515 | 151 | 180 | 0.0 | 0.0 | 0.00 | 0.00 | 0.00 | 100 | 1012.3 |
| 20260902194009 | 151 | 180 | 0.0 | 0.0 | 0.00 | 0.00 | 0.00 | 100 | 1012.4 |
| 20260902193458 | 151 | 180 | 0.0 | 2.6 | 0.00 | 0.00 | 0.00 | 100 | 1012.5 |
| 20260902192948 | 150 | 180 | 0.0 | 4.3 | 0.00 | 0.00 | 0.00 | 100 | 1012.6 |
| 20260902192443 | 150 | 358 | 0.9 | 4.3 | 0.00 | 0.00 | 0.00 | 100 | 1012.6 |
| 20260902191922 | 151 | 180 | 0.0 | 4.3 | 0.00 | 0.00 | 0.00 | 100 | 1012.9 |
| 20260902191417 | 151 | 188 | 0.0 | 4.3 | 0.00 | 0.00 | 0.00 | 100 | 1012.9 |
| 20260902190858 | 151 | 191 | 0.0 | 5.2 | 0.00 | 0.00 | 0.00 | 100 | 1012.9 |
| 20260902190348 | 151 | 272 | 3.5 | 5.2 | 0.00 | 0.00 | 0.00 | 100 | 1013.0 |
| 20260902185844 | 151 | 350 | 0.9 | 5.2 | 0.00 | 0.00 | 0.00 | 100 | 1013.1 |
| 20260902185325 | 150 | 52 | 0.0 | 6.1 | 0.00 | 0.00 | 0.00 | 100 | 1013.2 |
| 20260902184806 | 151 | 209 | 2.6 | 6.1 | 0.00 | 0.00 | 0.00 | 100 | 1013.3 |
| 20260902184307 | 151 | 295 | 0.0 | 4.3 | 0.00 | 0.00 | 0.00 | 100 | 1013.4 |
| 20260902183757 | 151 | 268 | 0.0 | 3.5 | 0.00 | 0.00 | 0.00 | 100 | 1013.5 |
| 20260902183246 | 151 | 40 | 0.0 | 5.2 | 0.00 | 0.00 | 0.00 | 100 | 1013.6 |
| 20260902182717 | 151 | 52 | 0.0 | 5.2 | 0.00 | 0.00 | 0.00 | 100 | 1013.8 |
| 20260902182217 | 151 | 196 | 0.0 | 5.2 | 0.00 | 0.00 | 0.00 | 100 | 1014.0 |
| 20260902181717 | 151 | 196 | 0.0 | 5.2 | 0.00 | 0.00 | 0.00 | 100 | 1014.1 |
| 20260902181200 | 151 | 241 | 0.0 | 5.2 | 0.00 | 0.00 | 0.00 | 100 | 1014.1 |
| 20260902180657 | 151 | 241 | 0.9 | 5.2 | 0.00 | 0.00 | 0.00 | 100 | 1014.3 |
| 20260902180158 | 151 | 198 | 0.9 | 5.2 | 0.00 | 0.00 | 0.00 | 100 | 1014.3 |
| 20260902175928 | 150 | 127 | 3.5 | 5.2 | 0.00 | 0.00 | 0.00 | 100 | 1014.4 |
| 20260902175158 | 151 | 225 | 0.9 | 5.2 | 0.00 | 0.00 | 0.00 | 100 | 1014.6 |
| 20260902174657 | 151 | 305 | 0.0 | 7.8 | 0.00 | 0.00 | 0.00 | 100 | 1014.6 |
| 20260902174156 | 151 | 355 | 4.3 | 7.8 | 0.00 | 0.00 | 0.00 | 100 | 1014.8 |
| 20260902173658 | 151 | 331 | 1.7 | 7.0 | 0.00 | 0.00 | 0.00 | 100 | 1014.8 |
| 20260902173156 | 151 | 326 | 0.9 | 7.0 | 0.00 | 0.00 | 0.00 | 100 | 1015.0 |
| 20260902172656 | 150 | 344 | 4.3 | 7.0 | 0.00 | 0.00 | 0.00 | 100 | 1015.0 |
| 20260902172156 | 150 | 219 | 2.6 | 5.2 | 0.00 | 0.00 | 0.00 | 100 | 1015.2 |
| 20260902171928 | 150 | 240 | 0.0 | 7.0 | 0.00 | 0.00 | 0.00 | 100 | 1015.2 |
| 20260902171156 | 150 | 0 | 3.5 | 7.0 | 0.00 | 0.00 | 0.00 | 100 | 1015.2 |
| 20260902170928 | 150 | 247 | 3.5 | 7.0 | 0.00 | 0.00 | 0.00 | 100 | 1015.2 |
| 20260902170149 | 150 | 358 | 2.6 | 7.0 | 0.00 | 0.00 | 0.00 | 100 | 1015.3 |
| 20260902165648 | 150 | 295 | 1.7 | 7.0 | 0.00 | 0.00 | 0.00 | 100 | 1015.3 |
| 20260902165148 | 150 | 334 | 1.7 | 7.0 | 0.00 | 0.00 | 0.00 | 100 | 1015.4 |
| 20260902164648 | 150 | 357 | 1.7 | 4.3 | 0.00 | 0.00 | 0.00 | 100 | 1015.6 |
| 20260902164145 | 149 | 236 | 0.0 | 4.3 | 0.00 | 0.00 | 0.00 | 100 | 1015.7 |
| 20260902163643 | 150 | 282 | 1.7 | 5.2 | 0.00 | 0.00 | 0.00 | 100 | 1015.8 |
| 20260902163142 | 149 | 302 | 0.0 | 7.8 | 0.00 | 0.00 | 0.00 | 100 | 1015.8 |
| 20260902162632 | 149 | 184 | 4.3 | 7.8 | 0.00 | 0.00 | 0.00 | 100 | 1015.9 |
| 20260902162128 | 149 | 219 | 3.5 | 7.8 | 0.00 | 0.00 | 0.00 | 100 | 1015.9 |
| 20260902161857 | 149 | 142 | 0.0 | 7.8 | 0.00 | 0.00 | 0.00 | 100 | 1015.9 |
| 20260902161113 | 149 | 201 | 0.0 | 5.2 | 0.00 | 0.00 | 0.00 | 100 | 1015.8 |
| 20260902160611 | 149 | 288 | 0.9 | 7.0 | 0.00 | 0.00 | 0.00 | 100 | 1015.8 |
| 20260902160605 | 149 | 338 | 1.7 | 7.0 | 0.00 | 0.00 | 0.00 | 100 | 1015.8 |
| 20260902155603 | 149 | 11 | 0.0 | 4.3 | 0.00 | 0.00 | 0.00 | 100 | 1015.9 |
| 20260902155047 | 148 | 358 | 0.9 | 4.3 | 0.00 | 0.00 | 0.00 | 100 | 1015.9 |
| 20260902154818 | 148 | 118 | 0.9 | 5.2 | 0.00 | 0.00 | 0.00 | 100 | 1015.8 |
| 20260902154316 | 148 | 227 | 1.7 | 6.1 | 0.00 | 0.00 | 0.00 | 100 | 1015.9 |
| 20260902153540 | 148 | 313 | 0.0 | 6.1 | 0.00 | 0.00 | 0.00 | 100 | 1015.9 |
| 20260902153302 | 148 | 291 | 2.6 | 5.2 | 0.00 | 0.00 | 0.00 | 100 | 1015.9 |
| 20260902152532 | 148 | 262 | 0.9 | 5.2 | 0.00 | 0.00 | 0.00 | 100 | 1015.9 |
| 20260902152011 | 147 | 240 | 2.6 | 6.1 | 0.00 | 0.00 | 0.00 | 100 | 1015.9 |
| 20260902151507 | 147 | 302 | 0.0 | 6.1 | 0.00 | 0.00 | 0.00 | 100 | 1015.8 |
| 20260902150956 | 147 | 345 | 0.9 | 4.3 | 0.00 | 0.00 | 0.00 | 100 | 1015.8 |
| 20260902150449 | 147 | 267 | 0.9 | 5.2 | 0.00 | 0.00 | 0.00 | 100 | 1015.7 |